Year,Month,Day,Hour,Minute,Value (Times are PST for windgust in km/hr)
2014,07,25,00,00,1.60
2014,07,25,00,03,1.60
2014,07,25,00,08,1.60
2014,07,25,00,09,1.60
2014,07,25,00,10,1.60
2014,07,25,00,11,1.60
2014,07,25,00,13,3.20
2014,07,25,00,14,1.60
2014,07,25,00,15,1.60
2014,07,25,00,16,3.20
2014,07,25,00,17,3.20
2014,07,25,00,18,3.20
2014,07,25,00,19,1.60
2014,07,25,00,20,1.60
2014,07,25,00,21,1.60
2014,07,25,00,22,1.60
2014,07,25,00,23,3.20
2014,07,25,00,24,3.20
2014,07,25,00,26,1.60
2014,07,25,00,28,1.60
2014,07,25,00,29,3.20
2014,07,25,00,30,1.60
2014,07,25,00,31,3.20
2014,07,25,00,32,4.80
2014,07,25,00,33,3.20
2014,07,25,00,34,3.20
2014,07,25,00,35,3.20
2014,07,25,00,36,3.20
2014,07,25,00,37,1.60
2014,07,25,00,38,1.60
2014,07,25,00,39,1.60
2014,07,25,00,40,4.80
2014,07,25,00,41,3.20
2014,07,25,00,42,1.60
2014,07,25,00,43,3.20
2014,07,25,00,44,1.60
2014,07,25,00,45,1.60
2014,07,25,00,46,1.60
2014,07,25,00,48,1.60
2014,07,25,00,49,1.60
2014,07,25,00,52,4.80
2014,07,25,00,53,3.20
2014,07,25,00,54,3.20
2014,07,25,00,56,1.60
2014,07,25,00,58,1.60
2014,07,25,00,59,4.80
2014,07,25,01,00,3.20
2014,07,25,01,01,1.60
2014,07,25,01,02,3.20
2014,07,25,01,03,1.60
2014,07,25,01,05,1.60
2014,07,25,01,07,3.20
2014,07,25,01,08,3.20
2014,07,25,01,09,4.80
2014,07,25,01,10,3.20
2014,07,25,01,11,1.60
2014,07,25,01,13,3.20
2014,07,25,01,14,3.20
2014,07,25,01,16,3.20
2014,07,25,01,19,3.20
2014,07,25,01,20,1.60
2014,07,25,01,22,4.80
2014,07,25,01,23,3.20
2014,07,25,01,24,3.20
2014,07,25,01,25,3.20
2014,07,25,01,26,1.60
2014,07,25,01,27,1.60
2014,07,25,01,28,3.20
2014,07,25,01,29,1.60
2014,07,25,01,31,3.20
2014,07,25,01,32,1.60
2014,07,25,01,35,1.60
2014,07,25,01,36,3.20
2014,07,25,01,37,3.20
2014,07,25,01,38,3.20
2014,07,25,01,39,1.60
2014,07,25,01,40,3.20
2014,07,25,01,41,3.20
2014,07,25,01,42,1.60
2014,07,25,01,43,3.20
2014,07,25,01,44,3.20
2014,07,25,01,45,1.60
2014,07,25,01,46,3.20
2014,07,25,01,47,3.20
2014,07,25,01,48,3.20
2014,07,25,01,49,3.20
2014,07,25,01,50,3.20
2014,07,25,01,52,1.60
2014,07,25,01,54,3.20
2014,07,25,01,55,3.20
2014,07,25,01,56,1.60
2014,07,25,01,58,3.20
2014,07,25,01,59,3.20
2014,07,25,02,00,3.20
2014,07,25,02,01,3.20
2014,07,25,02,02,3.20
2014,07,25,02,03,1.60
2014,07,25,02,04,1.60
2014,07,25,02,05,1.60
2014,07,25,02,08,3.20
2014,07,25,02,10,3.20
2014,07,25,02,11,3.20
2014,07,25,02,12,3.20
2014,07,25,02,13,4.80
2014,07,25,02,14,3.20
2014,07,25,02,15,3.20
2014,07,25,02,16,3.20
2014,07,25,02,17,1.60
2014,07,25,02,18,3.20
2014,07,25,02,19,3.20
2014,07,25,02,20,3.20
2014,07,25,02,21,4.80
2014,07,25,02,22,4.80
2014,07,25,02,23,1.60
2014,07,25,02,24,1.60
2014,07,25,02,25,4.80
2014,07,25,02,26,3.20
2014,07,25,02,27,4.80
2014,07,25,02,28,3.20
2014,07,25,02,29,1.60
2014,07,25,02,31,3.20
2014,07,25,02,32,3.20
2014,07,25,02,33,3.20
2014,07,25,02,34,3.20
2014,07,25,02,35,1.60
2014,07,25,02,36,1.60
2014,07,25,02,37,3.20
2014,07,25,02,38,3.20
2014,07,25,02,39,3.20
2014,07,25,02,40,1.60
2014,07,25,02,41,1.60
2014,07,25,02,42,1.60
2014,07,25,02,44,1.60
2014,07,25,02,45,1.60
2014,07,25,02,46,3.20
2014,07,25,02,47,3.20
2014,07,25,02,48,3.20
2014,07,25,02,50,1.60
2014,07,25,02,53,3.20
2014,07,25,02,54,3.20
2014,07,25,02,55,1.60
2014,07,25,02,57,1.60
2014,07,25,03,01,1.60
2014,07,25,03,02,1.60
2014,07,25,03,03,1.60
2014,07,25,03,04,3.20
2014,07,25,03,05,3.20
2014,07,25,03,08,1.60
2014,07,25,03,10,1.60
2014,07,25,03,22,3.20
2014,07,25,03,23,3.20
2014,07,25,03,26,1.60
2014,07,25,03,32,1.60
2014,07,25,03,33,3.20
2014,07,25,03,34,1.60
2014,07,25,03,38,1.60
2014,07,25,03,39,3.20
2014,07,25,03,40,3.20
2014,07,25,03,53,1.60
2014,07,25,03,54,1.60
2014,07,25,03,55,1.60
2014,07,25,04,04,3.20
2014,07,25,04,05,1.60
2014,07,25,04,07,1.60
2014,07,25,04,11,1.60
2014,07,25,04,12,1.60
2014,07,25,04,13,1.60
2014,07,25,04,14,3.20
2014,07,25,04,15,1.60
2014,07,25,04,16,1.60
2014,07,25,04,17,3.20
2014,07,25,04,18,3.20
2014,07,25,04,19,3.20
2014,07,25,04,20,3.20
2014,07,25,04,21,1.60
2014,07,25,04,35,1.60
2014,07,25,04,37,1.60
2014,07,25,04,38,1.60
2014,07,25,04,39,1.60
2014,07,25,04,40,1.60
2014,07,25,04,42,1.60
2014,07,25,05,03,1.60
2014,07,25,05,04,3.20
2014,07,25,05,05,3.20
2014,07,25,05,06,1.60
2014,07,25,05,09,1.60
2014,07,25,05,10,1.60
2014,07,25,05,25,1.60
2014,07,25,05,26,1.60
2014,07,25,05,27,1.60
2014,07,25,05,54,1.60
2014,07,25,05,59,1.60
2014,07,25,06,54,1.60
2014,07,25,07,45,1.60
2014,07,25,07,46,1.60
2014,07,25,07,47,1.60
2014,07,25,08,12,3.20
2014,07,25,08,13,3.20
2014,07,25,08,17,1.60
2014,07,25,08,18,6.40
2014,07,25,08,19,4.80
2014,07,25,08,20,3.20
2014,07,25,08,21,4.80
2014,07,25,08,22,4.80
2014,07,25,08,23,4.80
2014,07,25,08,24,1.60
2014,07,25,08,25,3.20
2014,07,25,08,26,3.20
2014,07,25,08,27,4.80
2014,07,25,08,28,4.80
2014,07,25,08,29,1.60
2014,07,25,08,30,1.60
2014,07,25,08,31,3.20
2014,07,25,08,32,3.20
2014,07,25,08,33,1.60
2014,07,25,08,34,4.80
2014,07,25,08,35,4.80
2014,07,25,08,36,4.80
2014,07,25,08,37,4.80
2014,07,25,08,38,3.20
2014,07,25,08,39,3.20
2014,07,25,08,40,6.40
2014,07,25,08,41,6.40
2014,07,25,08,42,1.60
2014,07,25,08,43,6.40
2014,07,25,08,44,6.40
2014,07,25,08,45,3.20
2014,07,25,08,46,3.20
2014,07,25,08,47,4.80
2014,07,25,08,48,4.80
2014,07,25,08,49,4.80
2014,07,25,08,50,4.80
2014,07,25,08,51,4.80
2014,07,25,08,52,3.20
2014,07,25,08,54,1.60
2014,07,25,08,55,3.20
2014,07,25,08,56,3.20
2014,07,25,08,57,1.60
2014,07,25,08,58,1.60
2014,07,25,08,59,3.20
2014,07,25,09,00,3.20
2014,07,25,09,02,3.20
2014,07,25,09,03,4.80
2014,07,25,09,04,6.40
2014,07,25,09,06,8.10
2014,07,25,09,07,6.40
2014,07,25,09,08,4.80
2014,07,25,09,09,4.80
2014,07,25,09,10,6.40
2014,07,25,09,11,6.40
2014,07,25,09,12,8.10
2014,07,25,09,13,1.60
2014,07,25,09,14,1.60
2014,07,25,09,16,4.80
2014,07,25,09,17,3.20
2014,07,25,09,18,3.20
2014,07,25,09,19,4.80
2014,07,25,09,20,6.40
2014,07,25,09,21,3.20
2014,07,25,09,22,4.80
2014,07,25,09,23,6.40
2014,07,25,09,24,6.40
2014,07,25,09,25,4.80
2014,07,25,09,26,4.80
2014,07,25,09,27,4.80
2014,07,25,09,28,4.80
2014,07,25,09,29,3.20
2014,07,25,09,30,4.80
2014,07,25,09,31,6.40
2014,07,25,09,32,4.80
2014,07,25,09,33,4.80
2014,07,25,09,34,4.80
2014,07,25,09,35,4.80
2014,07,25,09,36,4.80
2014,07,25,09,37,4.80
2014,07,25,09,38,4.80
2014,07,25,09,39,6.40
2014,07,25,09,40,6.40
2014,07,25,09,41,1.60
2014,07,25,09,42,6.40
2014,07,25,09,43,4.80
2014,07,25,09,44,6.40
2014,07,25,09,45,3.20
2014,07,25,09,46,6.40
2014,07,25,09,47,6.40
2014,07,25,09,48,4.80
2014,07,25,09,49,6.40
2014,07,25,09,50,4.80
2014,07,25,09,51,4.80
2014,07,25,09,52,1.60
2014,07,25,09,53,6.40
2014,07,25,09,54,4.80
2014,07,25,09,55,4.80
2014,07,25,09,56,6.40
2014,07,25,09,57,6.40
2014,07,25,09,58,6.40
2014,07,25,09,59,6.40
2014,07,25,10,00,6.40
2014,07,25,10,01,8.10
2014,07,25,10,02,9.60
2014,07,25,10,03,4.80
2014,07,25,10,04,4.80
2014,07,25,10,05,9.60
2014,07,25,10,06,4.80
2014,07,25,10,07,6.40
2014,07,25,10,08,4.80
2014,07,25,10,09,1.60
2014,07,25,10,10,4.80
2014,07,25,10,11,4.80
2014,07,25,10,12,12.90
2014,07,25,10,13,9.60
2014,07,25,10,14,4.80
2014,07,25,10,15,6.40
2014,07,25,10,16,4.80
2014,07,25,10,17,4.80
2014,07,25,10,18,6.40
2014,07,25,10,19,6.40
2014,07,25,10,20,4.80
2014,07,25,10,21,4.80
2014,07,25,10,22,4.80
2014,07,25,10,23,6.40
2014,07,25,10,24,6.40
2014,07,25,10,25,6.40
2014,07,25,10,26,6.40
2014,07,25,10,27,6.40
2014,07,25,10,28,6.40
2014,07,25,10,29,8.10
2014,07,25,10,30,4.80
2014,07,25,10,31,8.10
2014,07,25,10,32,4.80
2014,07,25,10,33,4.80
2014,07,25,10,34,8.10
2014,07,25,10,35,8.10
2014,07,25,10,36,6.40
2014,07,25,10,37,4.80
2014,07,25,10,38,4.80
2014,07,25,10,39,6.40
2014,07,25,10,40,6.40
2014,07,25,10,41,6.40
2014,07,25,10,42,4.80
2014,07,25,10,43,8.10
2014,07,25,10,44,8.10
2014,07,25,10,45,8.10
2014,07,25,10,46,6.40
2014,07,25,10,47,6.40
2014,07,25,10,48,8.10
2014,07,25,10,49,6.40
2014,07,25,10,50,6.40
2014,07,25,10,51,8.10
2014,07,25,10,52,4.80
2014,07,25,10,53,11.30
2014,07,25,10,54,9.60
2014,07,25,10,55,9.60
2014,07,25,10,56,12.90
2014,07,25,10,57,11.30
2014,07,25,10,58,9.60
2014,07,25,10,59,8.10
2014,07,25,11,00,4.80
2014,07,25,11,01,8.10
2014,07,25,11,02,6.40
2014,07,25,11,03,8.10
2014,07,25,11,04,6.40
2014,07,25,11,05,11.30
2014,07,25,11,06,14.50
2014,07,25,11,07,11.30
2014,07,25,11,08,9.60
2014,07,25,11,09,11.30
2014,07,25,11,10,8.10
2014,07,25,11,11,9.60
2014,07,25,11,12,6.40
2014,07,25,11,13,8.10
2014,07,25,11,14,9.60
2014,07,25,11,15,11.30
2014,07,25,11,16,9.60
2014,07,25,11,17,14.50
2014,07,25,11,18,6.40
2014,07,25,11,19,6.40
2014,07,25,11,20,8.10
2014,07,25,11,21,11.30
2014,07,25,11,22,9.60
2014,07,25,11,23,9.60
2014,07,25,11,24,4.80
2014,07,25,11,25,3.20
2014,07,25,11,26,6.40
2014,07,25,11,27,9.60
2014,07,25,11,28,9.60
2014,07,25,11,29,9.60
2014,07,25,11,30,6.40
2014,07,25,11,31,6.40
2014,07,25,11,32,4.80
2014,07,25,11,33,8.10
2014,07,25,11,34,6.40
2014,07,25,11,35,6.40
2014,07,25,11,36,8.10
2014,07,25,11,37,8.10
2014,07,25,11,38,4.80
2014,07,25,11,39,8.10
2014,07,25,11,40,8.10
2014,07,25,11,41,14.50
2014,07,25,11,42,6.40
2014,07,25,11,43,8.10
2014,07,25,11,44,8.10
2014,07,25,11,45,9.60
2014,07,25,11,46,6.40
2014,07,25,11,47,14.50
2014,07,25,11,48,8.10
2014,07,25,11,49,6.40
2014,07,25,11,50,8.10
2014,07,25,11,51,9.60
2014,07,25,11,52,6.40
2014,07,25,11,53,6.40
2014,07,25,11,54,8.10
2014,07,25,11,55,6.40
2014,07,25,11,56,8.10
2014,07,25,11,57,8.10
2014,07,25,11,58,17.70
2014,07,25,11,59,16.10
2014,07,25,12,00,14.50
2014,07,25,12,01,16.10
2014,07,25,12,02,14.50
2014,07,25,12,03,11.30
2014,07,25,12,04,11.30
2014,07,25,12,05,6.40
2014,07,25,12,06,8.10
2014,07,25,12,07,6.40
2014,07,25,12,08,9.60
2014,07,25,12,09,8.10
2014,07,25,12,10,9.60
2014,07,25,12,11,8.10
2014,07,25,12,12,6.40
2014,07,25,12,13,14.50
2014,07,25,12,14,8.10
2014,07,25,12,15,11.30
2014,07,25,12,16,14.50
2014,07,25,12,17,16.10
2014,07,25,12,18,16.10
2014,07,25,12,19,8.10
2014,07,25,12,20,12.90
2014,07,25,12,21,14.50
2014,07,25,12,22,11.30
2014,07,25,12,23,8.10
2014,07,25,12,24,6.40
2014,07,25,12,25,8.10
2014,07,25,12,26,9.60
2014,07,25,12,27,9.60
2014,07,25,12,28,11.30
2014,07,25,12,29,11.30
2014,07,25,12,30,9.60
2014,07,25,12,31,8.10
2014,07,25,12,32,6.40
2014,07,25,12,33,8.10
2014,07,25,12,34,9.60
2014,07,25,12,35,9.60
2014,07,25,12,36,19.30
2014,07,25,12,37,12.90
2014,07,25,12,38,11.30
2014,07,25,12,39,12.90
2014,07,25,12,40,11.30
2014,07,25,12,41,8.10
2014,07,25,12,42,8.10
2014,07,25,12,43,8.10
2014,07,25,12,44,6.40
2014,07,25,12,45,9.60
2014,07,25,12,46,8.10
2014,07,25,12,47,8.10
2014,07,25,12,48,6.40
2014,07,25,12,49,14.50
2014,07,25,12,50,17.70
2014,07,25,12,51,16.10
2014,07,25,12,52,16.10
2014,07,25,12,53,17.70
2014,07,25,12,54,14.50
2014,07,25,12,55,16.10
2014,07,25,12,56,14.50
2014,07,25,12,57,16.10
2014,07,25,12,58,14.50
2014,07,25,12,59,16.10
2014,07,25,13,00,14.50
2014,07,25,13,01,14.50
2014,07,25,13,02,9.60
2014,07,25,13,03,14.50
2014,07,25,13,04,11.30
2014,07,25,13,05,16.10
2014,07,25,13,06,11.30
2014,07,25,13,07,11.30
2014,07,25,13,08,19.30
2014,07,25,13,09,14.50
2014,07,25,13,10,14.50
2014,07,25,13,11,12.90
2014,07,25,13,12,12.90
2014,07,25,13,13,6.40
2014,07,25,13,14,9.60
2014,07,25,13,15,6.40
2014,07,25,13,16,6.40
2014,07,25,13,17,9.60
2014,07,25,13,18,8.10
2014,07,25,13,19,6.40
2014,07,25,13,20,4.80
2014,07,25,13,21,4.80
2014,07,25,13,22,9.60
2014,07,25,13,23,6.40
2014,07,25,13,24,8.10
2014,07,25,13,25,8.10
2014,07,25,13,26,8.10
2014,07,25,13,27,11.30
2014,07,25,13,28,4.80
2014,07,25,13,29,4.80
2014,07,25,13,30,11.30
2014,07,25,13,31,14.50
2014,07,25,13,32,9.60
2014,07,25,13,33,16.10
2014,07,25,13,34,12.90
2014,07,25,13,35,14.50
2014,07,25,13,36,17.70
2014,07,25,13,37,12.90
2014,07,25,13,38,11.30
2014,07,25,13,39,16.10
2014,07,25,13,40,14.50
2014,07,25,13,41,14.50
2014,07,25,13,42,14.50
2014,07,25,13,43,11.30
2014,07,25,13,44,14.50
2014,07,25,13,45,14.50
2014,07,25,13,46,16.10
2014,07,25,13,47,11.30
2014,07,25,13,48,9.60
2014,07,25,13,49,9.60
2014,07,25,13,50,12.90
2014,07,25,13,51,16.10
2014,07,25,13,52,11.30
2014,07,25,13,53,16.10
2014,07,25,13,54,8.10
2014,07,25,13,55,14.50
2014,07,25,13,56,6.40
2014,07,25,13,57,8.10
2014,07,25,13,58,9.60
2014,07,25,13,59,11.30
2014,07,25,14,00,14.50
2014,07,25,14,01,8.10
2014,07,25,14,02,6.40
2014,07,25,14,03,9.60
2014,07,25,14,04,11.30
2014,07,25,14,05,11.30
2014,07,25,14,06,17.70
2014,07,25,14,07,11.30
2014,07,25,14,08,11.30
2014,07,25,14,09,9.60
2014,07,25,14,10,6.40
2014,07,25,14,11,6.40
2014,07,25,14,12,8.10
2014,07,25,14,13,11.30
2014,07,25,14,14,14.50
2014,07,25,14,15,9.60
2014,07,25,14,16,9.60
2014,07,25,14,17,9.60
2014,07,25,14,18,6.40
2014,07,25,14,19,9.60
2014,07,25,14,20,8.10
2014,07,25,14,21,8.10
2014,07,25,14,22,6.40
2014,07,25,14,23,6.40
2014,07,25,14,24,8.10
2014,07,25,14,25,8.10
2014,07,25,14,26,6.40
2014,07,25,14,27,8.10
2014,07,25,14,28,6.40
2014,07,25,14,29,8.10
2014,07,25,14,30,8.10
2014,07,25,14,31,8.10
2014,07,25,14,32,11.30
2014,07,25,14,33,8.10
2014,07,25,14,34,8.10
2014,07,25,14,35,9.60
2014,07,25,14,36,9.60
2014,07,25,14,37,11.30
2014,07,25,14,38,8.10
2014,07,25,14,39,11.30
2014,07,25,14,40,12.90
2014,07,25,14,41,11.30
2014,07,25,14,42,9.60
2014,07,25,14,43,1.60
2014,07,25,14,44,6.40
2014,07,25,14,45,11.30
2014,07,25,14,46,14.50
2014,07,25,14,47,8.10
2014,07,25,14,48,11.30
2014,07,25,14,49,12.90
2014,07,25,14,50,11.30
2014,07,25,14,51,8.10
2014,07,25,14,52,11.30
2014,07,25,14,53,3.20
2014,07,25,14,54,3.20
2014,07,25,14,55,8.10
2014,07,25,14,56,9.60
2014,07,25,14,57,8.10
2014,07,25,14,58,6.40
2014,07,25,14,59,11.30
2014,07,25,15,00,16.10
2014,07,25,15,01,17.70
2014,07,25,15,02,14.50
2014,07,25,15,03,17.70
2014,07,25,15,04,16.10
2014,07,25,15,05,16.10
2014,07,25,15,06,17.70
2014,07,25,15,07,16.10
2014,07,25,15,08,16.10
2014,07,25,15,09,17.70
2014,07,25,15,10,14.50
2014,07,25,15,11,11.30
2014,07,25,15,12,8.10
2014,07,25,15,13,11.30
2014,07,25,15,14,16.10
2014,07,25,15,15,14.50
2014,07,25,15,16,19.30
2014,07,25,15,17,16.10
2014,07,25,15,18,11.30
2014,07,25,15,19,11.30
2014,07,25,15,20,17.70
2014,07,25,15,21,12.90
2014,07,25,15,22,14.50
2014,07,25,15,23,9.60
2014,07,25,15,24,9.60
2014,07,25,15,25,4.80
2014,07,25,15,26,11.30
2014,07,25,15,27,8.10
2014,07,25,15,28,9.60
2014,07,25,15,29,8.10
2014,07,25,15,30,6.40
2014,07,25,15,31,11.30
2014,07,25,15,32,8.10
2014,07,25,15,33,8.10
2014,07,25,15,34,6.40
2014,07,25,15,35,14.50
2014,07,25,15,36,9.60
2014,07,25,15,37,8.10
2014,07,25,15,38,6.40
2014,07,25,15,39,9.60
2014,07,25,15,40,6.40
2014,07,25,15,41,6.40
2014,07,25,15,42,4.80
2014,07,25,15,43,4.80
2014,07,25,15,44,6.40
2014,07,25,15,45,16.10
2014,07,25,15,46,12.90
2014,07,25,15,47,14.50
2014,07,25,15,48,16.10
2014,07,25,15,49,11.30
2014,07,25,15,50,14.50
2014,07,25,15,51,11.30
2014,07,25,15,52,17.70
2014,07,25,15,53,14.50
2014,07,25,15,54,11.30
2014,07,25,15,55,17.70
2014,07,25,15,56,16.10
2014,07,25,15,57,16.10
2014,07,25,15,58,14.50
2014,07,25,15,59,9.60
2014,07,25,16,00,11.30
2014,07,25,16,01,9.60
2014,07,25,16,02,9.60
2014,07,25,16,03,11.30
2014,07,25,16,04,9.60
2014,07,25,16,05,8.10
2014,07,25,16,06,14.50
2014,07,25,16,07,6.40
2014,07,25,16,08,8.10
2014,07,25,16,09,6.40
2014,07,25,16,10,6.40
2014,07,25,16,11,4.80
2014,07,25,16,12,6.40
2014,07,25,16,13,8.10
2014,07,25,16,14,4.80
2014,07,25,16,15,16.10
2014,07,25,16,16,16.10
2014,07,25,16,17,16.10
2014,07,25,16,18,12.90
2014,07,25,16,19,17.70
2014,07,25,16,20,16.10
2014,07,25,16,21,14.50
2014,07,25,16,22,16.10
2014,07,25,16,23,14.50
2014,07,25,16,24,14.50
2014,07,25,16,25,11.30
2014,07,25,16,26,16.10
2014,07,25,16,27,9.60
2014,07,25,16,28,6.40
2014,07,25,16,29,8.10
2014,07,25,16,30,8.10
2014,07,25,16,31,4.80
2014,07,25,16,32,8.10
2014,07,25,16,33,9.60
2014,07,25,16,34,8.10
2014,07,25,16,35,11.30
2014,07,25,16,36,6.40
2014,07,25,16,37,9.60
2014,07,25,16,38,6.40
2014,07,25,16,39,8.10
2014,07,25,16,40,9.60
2014,07,25,16,41,8.10
2014,07,25,16,42,8.10
2014,07,25,16,43,8.10
2014,07,25,16,44,6.40
2014,07,25,16,45,6.40
2014,07,25,16,46,6.40
2014,07,25,16,47,4.80
2014,07,25,16,48,3.20
2014,07,25,16,49,3.20
2014,07,25,16,50,4.80
2014,07,25,16,51,6.40
2014,07,25,16,52,1.60
2014,07,25,16,53,3.20
2014,07,25,16,54,4.80
2014,07,25,16,55,6.40
2014,07,25,16,56,4.80
2014,07,25,16,57,4.80
2014,07,25,16,58,4.80
2014,07,25,16,59,4.80
2014,07,25,17,00,1.60
2014,07,25,17,01,6.40
2014,07,25,17,02,4.80
2014,07,25,17,03,6.40
2014,07,25,17,04,8.10
2014,07,25,17,05,6.40
2014,07,25,17,06,3.20
2014,07,25,17,07,6.40
2014,07,25,17,08,9.60
2014,07,25,17,09,3.20
2014,07,25,17,10,4.80
2014,07,25,17,11,8.10
2014,07,25,17,12,6.40
2014,07,25,17,13,4.80
2014,07,25,17,14,6.40
2014,07,25,17,15,6.40
2014,07,25,17,16,4.80
2014,07,25,17,17,3.20
2014,07,25,17,18,6.40
2014,07,25,17,19,1.60
2014,07,25,17,20,6.40
2014,07,25,17,21,11.30
2014,07,25,17,22,8.10
2014,07,25,17,23,14.50
2014,07,25,17,24,11.30
2014,07,25,17,25,8.10
2014,07,25,17,26,6.40
2014,07,25,17,27,9.60
2014,07,25,17,28,9.60
2014,07,25,17,29,8.10
2014,07,25,17,30,4.80
2014,07,25,17,31,8.10
2014,07,25,17,32,4.80
2014,07,25,17,33,3.20
2014,07,25,17,34,6.40
2014,07,25,17,36,6.40
2014,07,25,17,37,6.40
2014,07,25,17,38,4.80
2014,07,25,17,39,1.60
2014,07,25,17,40,4.80
2014,07,25,17,41,4.80
2014,07,25,17,42,3.20
2014,07,25,17,43,3.20
2014,07,25,17,44,6.40
2014,07,25,17,45,4.80
2014,07,25,17,46,6.40
2014,07,25,17,47,8.10
2014,07,25,17,48,1.60
2014,07,25,17,49,1.60
2014,07,25,17,50,1.60
2014,07,25,17,51,4.80
2014,07,25,17,52,4.80
2014,07,25,17,53,4.80
2014,07,25,17,54,4.80
2014,07,25,17,55,4.80
2014,07,25,17,56,4.80
2014,07,25,17,57,6.40
2014,07,25,17,58,4.80
2014,07,25,17,59,6.40
2014,07,25,18,00,4.80
2014,07,25,18,01,3.20
2014,07,25,18,02,4.80
2014,07,25,18,03,4.80
2014,07,25,18,04,4.80
2014,07,25,18,05,4.80
2014,07,25,18,06,4.80
2014,07,25,18,07,6.40
2014,07,25,18,08,4.80
2014,07,25,18,09,6.40
2014,07,25,18,10,6.40
2014,07,25,18,11,6.40
2014,07,25,18,12,6.40
2014,07,25,18,13,8.10
2014,07,25,18,14,11.30
2014,07,25,18,15,9.60
2014,07,25,18,16,8.10
2014,07,25,18,17,6.40
2014,07,25,18,18,4.80
2014,07,25,18,19,8.10
2014,07,25,18,20,1.60
2014,07,25,18,21,6.40
2014,07,25,18,22,8.10
2014,07,25,18,23,4.80
2014,07,25,18,24,4.80
2014,07,25,18,25,3.20
2014,07,25,18,26,6.40
2014,07,25,18,27,1.60
2014,07,25,18,28,8.10
2014,07,25,18,29,4.80
2014,07,25,18,30,8.10
2014,07,25,18,31,9.60
2014,07,25,18,32,6.40
2014,07,25,18,33,6.40
2014,07,25,18,34,6.40
2014,07,25,18,35,4.80
2014,07,25,18,36,6.40
2014,07,25,18,37,9.60
2014,07,25,18,38,6.40
2014,07,25,18,39,6.40
2014,07,25,18,40,9.60
2014,07,25,18,41,9.60
2014,07,25,18,42,9.60
2014,07,25,18,43,8.10
2014,07,25,18,44,9.60
2014,07,25,18,45,6.40
2014,07,25,18,46,9.60
2014,07,25,18,47,4.80
2014,07,25,18,48,4.80
2014,07,25,18,49,6.40
2014,07,25,18,50,8.10
2014,07,25,18,51,6.40
2014,07,25,18,52,6.40
2014,07,25,18,53,6.40
2014,07,25,18,54,3.20
2014,07,25,18,55,6.40
2014,07,25,18,56,8.10
2014,07,25,18,57,1.60
2014,07,25,18,58,1.60
2014,07,25,18,59,4.80
2014,07,25,19,00,4.80
2014,07,25,19,01,4.80
2014,07,25,19,02,6.40
2014,07,25,19,03,9.60
2014,07,25,19,04,6.40
2014,07,25,19,05,3.20
2014,07,25,19,06,4.80
2014,07,25,19,07,1.60
2014,07,25,19,08,6.40
2014,07,25,19,09,6.40
2014,07,25,19,10,4.80
2014,07,25,19,11,8.10
2014,07,25,19,12,8.10
2014,07,25,19,13,3.20
2014,07,25,19,14,1.60
2014,07,25,19,15,1.60
2014,07,25,19,16,6.40
2014,07,25,19,17,4.80
2014,07,25,19,18,4.80
2014,07,25,19,19,6.40
2014,07,25,19,20,4.80
2014,07,25,19,21,1.60
2014,07,25,19,22,4.80
2014,07,25,19,23,1.60
2014,07,25,19,24,3.20
2014,07,25,19,25,3.20
2014,07,25,19,26,3.20
2014,07,25,19,27,6.40
2014,07,25,19,28,8.10
2014,07,25,19,29,3.20
2014,07,25,19,30,1.60
2014,07,25,19,31,1.60
2014,07,25,19,32,1.60
2014,07,25,19,33,1.60
2014,07,25,19,34,1.60
2014,07,25,19,35,4.80
2014,07,25,19,36,3.20
2014,07,25,19,37,4.80
2014,07,25,19,38,3.20
2014,07,25,19,39,4.80
2014,07,25,19,40,3.20
2014,07,25,19,41,1.60
2014,07,25,19,42,1.60
2014,07,25,19,43,4.80
2014,07,25,19,44,4.80
2014,07,25,19,45,1.60
2014,07,25,19,46,1.60
2014,07,25,19,47,1.60
2014,07,25,19,48,3.20
2014,07,25,19,49,6.40
2014,07,25,19,50,6.40
2014,07,25,19,51,3.20
2014,07,25,19,52,3.20
2014,07,25,19,53,4.80
2014,07,25,19,54,1.60
2014,07,25,19,58,1.60
2014,07,25,20,00,3.20
2014,07,25,20,01,1.60
2014,07,25,20,02,1.60
2014,07,25,20,06,1.60
2014,07,25,20,07,3.20
2014,07,25,20,08,4.80
2014,07,25,20,09,4.80
2014,07,25,20,10,3.20
2014,07,25,20,11,3.20
2014,07,25,20,12,3.20
2014,07,25,20,16,4.80
2014,07,25,20,17,4.80
2014,07,25,20,18,3.20
2014,07,25,20,19,1.60
2014,07,25,20,20,1.60
2014,07,25,20,21,1.60
2014,07,25,20,23,4.80
2014,07,25,20,24,3.20
2014,07,25,20,25,3.20
2014,07,25,20,26,1.60
2014,07,25,20,27,1.60
2014,07,25,20,29,1.60
2014,07,25,20,30,1.60
2014,07,25,20,40,1.60
2014,07,25,23,18,1.60
2014,07,25,23,21,1.60
2014,07,25,23,22,3.20
2014,07,25,23,29,1.60
2014,07,25,23,30,1.60
2014,07,25,23,38,3.20
2014,07,25,23,39,3.20
2014,07,25,23,41,1.60
2014,07,25,23,42,1.60
2014,07,25,23,48,3.20
2014,07,25,23,49,3.20
2014,07,25,23,51,3.20
2014,07,25,23,52,1.60
2014,07,25,23,55,1.60
